Showing default

ALSAT 2B, 41786

Orbit data source: Space-Track

ALSAT 2B, 41786 is a payload satellite owned by ASAL (DZ) in SSO that was launched on Mon, 26 Sep 2016 UTC via a PSLV launch vehicle from the Sirharikota (SRI). Payload-class satellites include a variety of spacecraft equipped with specific instruments for various scientific and technological missions. These include communications satellites like Starlink; space stations such as the ISS; scientific satellites like the Hubble; Earth observation satellites from companies like Planet Labs, Umbra, and HawkEye 360; GPS; miniature CubeSats for education and research; and military/defense satellites.

Loading next visibility...
Identifier
41786, 2016-059D
Orbit
SSO
Country
Flag of DZDZ / ALG
Related business
Manufacturer
Airbus/Toulouse
Mission
Operational Civil Imaging
Bus & Motor
MYRIADE, AOCS
Mass
117 kg wet, 117 kg dry
Launch date (UTC)
2016-09-26 (9 years ago)
Launch vehicle
PSLV
Launch site
Sirharikota (SRI)
Object type
Payload
Rocket body
Debris
Shape & HBR
Box + 1 Pan, 0.9 m
Radar Cross Section
0.912 m², Medium (>0.1 m² and < 1m²)

Expand to show TLE details & history
Last TLE update: 11 hours ago

TLE from 11 hours ago
0 ALSAT 2B
1 41786U 16059D   25258.33287782  .00000890  00000-0  15546-3 0  9990
2 41786  98.0299 320.4036 0001635  68.0542 292.0838 14.70295590480379
Epoch: 2025-09-15T07:59Z
TLE epoch observation values (Epoch: 2025-09-15T07:59:20.643Z)
Latitude
-0.00002°
Longitude
-153.97145°
Altitude
662.696 km
Speed
7.526 km/s
True Right ascension
21h 21m 36s
True Declination
0° 00' 00"
Sunlit
Object was in full shadow at epoch
Visualization orbit readout
Latitude
Unknown
Longitude
Unknown
Altitude
Unknown
Speed
Unknown
Apparent Right ascension
Unknown
Apparent Declination
Unknown
Sunlit
N/A
Visualization observer readout
Local Sidereal Time
11:10:54
Azimuth
Unknown
Elevation
Unknown
Doppler factor
Unknown
Orbital elements
Apogee altitude
658.335 km
Perigee altitude
656.034 km
Semi-major axis
7,035.321 km
Eccentricity
0.00016
Inclination
98.0299°
RAAN
320.4036°
Arg. of periapsis
68.0542°
True anomaly
292.06644°
Mean anomaly
292.0838°
Eccentric anomaly
292.07512°
Mean motion
3.67805 °/min
Orbital period
97.88 mins
BSTAR
0.00015546
Loading maneuver chart data...
Computing Atmospheric mass density...
Loading historical data...
Loading historical data...
Loading historical data...
Loading historical data...
Loading historical data...
Loading historical data...
Loading historical data...

Documentation

Showing up to 5 results
|